,,,PA_Meas_PMT16A,,PR_Meas_QMR101_102,,RH_Meas_QMH101,,SR_Meas_QMS101,,TA_Meas_QMH101,,GenWind,,GenWind,
date,time,status,PA,status,PR,status,RH,status,SR,status,TA,status,DirAvg,status,SpdAvg,
2008-08-18, 06:45:04,VALID,1007.16,VALID,0,VALID,95.7959,VALID,39.3201,VALID,23.1975,VALID,358,VALID,0.276953,
2008-08-18, 06:46:04,VALID,1007.17,VALID,0,VALID,95.7959,VALID,38.8173,VALID,23.2187,VALID,358,VALID,0.238672,
2008-08-18, 06:47:04,VALID,1007.21,VALID,0,VALID,95.8111,VALID,38.415,VALID,23.217,VALID,358,VALID,0.246484,
2008-08-18, 06:48:04,VALID,1007.21,VALID,0,VALID,95.834,VALID,38.6162,VALID,23.2364,VALID,358,VALID,0.163672,
2008-08-18, 06:49:04,VALID,1007.25,VALID,0,VALID,95.8493,VALID,39.0184,VALID,23.2771,VALID,358,VALID,0,
2008-08-18, 06:50:04,VALID,1007.26,VALID,0,VALID,95.834,VALID,38.8173,VALID,23.2948,VALID,358,VALID,0,
2008-08-18, 06:51:04,VALID,1007.58,VALID,0,VALID,95.8721,VALID,38.5156,VALID,23.3337,VALID,358,VALID,0.0835937,
2008-08-18, 06:52:04,VALID,1007.38,VALID,0,VALID,95.8569,VALID,39.4207,VALID,23.355,VALID,358,VALID,0.0246094,
2008-08-18, 06:53:04,VALID,1007.27,VALID,0,VALID,95.8645,VALID,41.9347,VALID,23.4116,VALID,358,VALID,0.165234,
2008-08-18, 06:54:04,VALID,1007.24,VALID,0,VALID,95.8798,VALID,44.6499,VALID,23.4311,VALID,358,VALID,0.419922,
2008-08-18, 06:55:04,VALID,1007.27,VALID,0,VALID,95.8645,VALID,47.868,VALID,23.47,VALID,358,VALID,0.429297,
2008-08-18, 06:56:04,VALID,1007.26,VALID,0,VALID,95.8416,VALID,52.5944,VALID,23.5302,VALID,358,VALID,0.491406,
2008-08-18, 06:57:04,VALID,1007.25,VALID,0,VALID,95.8187,VALID,58.8293,VALID,23.5284,VALID,358,VALID,0.488672,
2008-08-18, 06:58:04,VALID,1007.26,VALID,0,VALID,95.7653,VALID,64.2597,VALID,23.5691,VALID,358,VALID,0.385156,
2008-08-18, 06:59:04,VALID,1007.27,VALID,0,VALID,95.7882,VALID,66.3715,VALID,23.608,VALID,358,VALID,0.441406,
2008-08-18, 07:00:04,VALID,1007.26,VALID,0,VALID,95.8111,VALID,62.9524,VALID,23.6469,VALID,358,VALID,0.242969,
2008-08-18, 07:01:04,VALID,1007.33,VALID,0,VALID,95.8035,VALID,65.6676,VALID,23.6646,VALID,358,VALID,0.162891,
2008-08-18, 07:02:04,VALID,1007.35,VALID,0,VALID,95.8035,VALID,74.2155,VALID,23.723,VALID,358,VALID,0.1375,
2008-08-18, 07:03:04,VALID,1007.37,VALID,0,VALID,95.8493,VALID,89.0988,VALID,23.8221,VALID,358,VALID,0,
2008-08-18, 07:04:04,VALID,1007.4,VALID,0,VALID,95.8187,VALID,75.3216,VALID,23.8611,VALID,358,VALID,0,
2008-08-18, 07:05:04,VALID,1007.41,VALID,0,VALID,95.7501,VALID,103.58,VALID,23.8593,VALID,358,VALID,0,
2008-08-18, 07:06:04,VALID,1007.38,VALID,0,VALID,95.7424,VALID,131.436,VALID,23.9566,VALID,358,VALID,0.135156,
2008-08-18, 07:07:04,VALID,1007.36,VALID,0,VALID,95.7577,VALID,148.33,VALID,24.0752,VALID,358,VALID,0.291406,
2008-08-18, 07:08:04,VALID,1007.36,VALID,0,VALID,95.7882,VALID,153.861,VALID,24.2097,VALID,358,VALID,0.0960938,
2008-08-18, 07:09:04,VALID,1007.34,VALID,0,VALID,95.7959,VALID,146.721,VALID,24.3654,VALID,357,VALID,0.118359,
2008-08-18, 07:10:04,VALID,1007.37,VALID,0,VALID,95.7272,VALID,134.754,VALID,24.4628,VALID,357,VALID,0.233594,
2008-08-18, 07:11:04,VALID,1007.35,VALID,0,VALID,95.4678,VALID,118.262,VALID,24.562,VALID,340,VALID,0.0105469,
2008-08-18, 07:12:04,VALID,1007.36,VALID,0,VALID,95.2313,VALID,100.965,VALID,24.6788,VALID,335,VALID,0,
2008-08-18, 07:13:04,VALID,1007.34,VALID,0,VALID,95.0177,VALID,101.166,VALID,24.7937,VALID,334,VALID,0,
2008-08-18, 07:14:04,VALID,1007.31,VALID,0,VALID,94.6439,VALID,136.766,VALID,24.893,VALID,338,VALID,0,
2008-08-18, 07:15:04,VALID,1007.34,VALID,0,VALID,94.3692,VALID,192.276,VALID,25.0098,VALID,337,VALID,0.210547,
2008-08-18, 07:16:04,VALID,1007.35,VALID,0,VALID,93.469,VALID,254.827,VALID,25.0663,VALID,3,VALID,0.733984,
2008-08-18, 07:17:04,VALID,1007.36,VALID,0,VALID,92.6909,VALID,274.738,VALID,25.2435,VALID,357,VALID,0.652734,
2008-08-18, 07:18:04,VALID,1007.38,VALID,0,VALID,91.8975,VALID,280.068,VALID,25.3993,VALID,338,VALID,0.3875,
2008-08-18, 07:19:04,VALID,1007.39,VALID,0,VALID,91.2872,VALID,283.688,VALID,25.596,VALID,334,VALID,0.427734,
2008-08-18, 07:20:04,VALID,1007.44,VALID,0,VALID,90.7226,VALID,286.001,VALID,25.7499,VALID,336,VALID,0.320313,
2008-08-18, 07:21:04,VALID,1007.42,VALID,0,VALID,90.4938,VALID,289.219,VALID,26.0226,VALID,338,VALID,0.381641,
2008-08-18, 07:22:04,VALID,1007.44,VALID,0,VALID,88.3806,VALID,295.353,VALID,26.2174,VALID,1,VALID,0.693359,
2008-08-18, 07:23:04,VALID,1007.45,VALID,0,VALID,87.3659,VALID,300.884,VALID,26.3128,VALID,2,VALID,0.679297,
2008-08-18, 07:24:04,VALID,1007.44,VALID,0,VALID,87.2973,VALID,306.013,VALID,26.4512,VALID,346,VALID,0.862109,
2008-08-18, 07:25:04,VALID,1007.46,VALID,0,VALID,86.5496,VALID,309.432,VALID,26.5506,VALID,5,VALID,0.609766,
2008-08-18, 07:26:04,VALID,1007.48,VALID,0,VALID,84.3373,VALID,313.656,VALID,26.6265,VALID,355,VALID,1.13906,
2008-08-18, 07:27:04,VALID,1007.51,VALID,0,VALID,85.2909,VALID,320.092,VALID,26.7045,VALID,360,VALID,0.551172,
2008-08-18, 07:28:04,VALID,1007.5,VALID,0,VALID,85.6418,VALID,326.327,VALID,26.8214,VALID,357,VALID,0.701563,
2008-08-18, 07:29:04,VALID,1007.52,VALID,0,VALID,84.5204,VALID,329.143,VALID,26.8798,VALID,352,VALID,0.325391,
2008-08-18, 07:30:04,VALID,1007.52,VALID,0,VALID,82.8191,VALID,331.455,VALID,26.9967,VALID,13,VALID,0.525781,
2008-08-18, 07:31:04,VALID,1007.55,VALID,0,VALID,82.0639,VALID,336.685,VALID,27.0962,VALID,358,VALID,0.730469,
2008-08-18, 07:32:04,VALID,1007.55,VALID,0,VALID,81.3849,VALID,331.657,VALID,27.2131,VALID,346,VALID,0.160156,
2008-08-18, 07:33:04,VALID,1007.55,VALID,0,VALID,81.4002,VALID,307.421,VALID,27.369,VALID,350,VALID,0.205078,
2008-08-18, 07:34:04,VALID,1007.51,VALID,0,VALID,80.5686,VALID,345.635,VALID,27.5403,VALID,301,VALID,0.426562,
2008-08-18, 07:35:04,VALID,1007.53,VALID,0,VALID,80.3397,VALID,337.288,VALID,27.7178,VALID,312,VALID,0.209375,
2008-08-18, 07:36:04,VALID,1007.51,VALID,0,VALID,80.1109,VALID,348.249,VALID,27.8758,VALID,295,VALID,0.416016,
2008-08-18, 07:37:04,VALID,1007.49,VALID,0,VALID,77.7688,VALID,352.071,VALID,28.0101,VALID,358,VALID,0.733984,
2008-08-18, 07:38:04,VALID,1007.51,VALID,0,VALID,76.8762,VALID,357.401,VALID,28.1466,VALID,357,VALID,0.631641,
2008-08-18, 07:39:04,VALID,1007.53,VALID,0,VALID,77.9748,VALID,361.825,VALID,28.2245,VALID,339,VALID,0.639453,
2008-08-18, 07:40:04,VALID,1007.56,VALID,0,VALID,75.6175,VALID,367.256,VALID,28.283,VALID,304,VALID,0.453516,
2008-08-18, 07:41:04,VALID,1007.57,VALID,0,VALID,75.0606,VALID,373.39,VALID,28.3241,VALID,35,VALID,0.794531,
2008-08-18, 07:42:04,VALID,1007.57,VALID,0,VALID,75.5869,VALID,380.53,VALID,28.2851,VALID,15,VALID,0.451953,
2008-08-18, 07:43:04,VALID,1007.58,VALID,0,VALID,77.395,VALID,390.184,VALID,28.3046,VALID,18,VALID,0.146875,
2008-08-18, 07:44:04,VALID,1007.62,VALID,0,VALID,76.3727,VALID,394.207,VALID,28.4216,VALID,247,VALID,0.414844,
2008-08-18, 07:45:04,VALID,1007.63,VALID,0,VALID,74.7783,VALID,319.388,VALID,28.5581,VALID,353,VALID,0.735156,
2008-08-18, 07:46:04,VALID,1007.61,VALID,0,VALID,75.7548,VALID,148.33,VALID,28.5949,VALID,350,VALID,0.316406,
2008-08-18, 07:47:04,VALID,1007.66,VALID,0,VALID,74.9843,VALID,188.153,VALID,28.5949,VALID,200,VALID,0.149219,
2008-08-18, 07:48:04,VALID,1007.66,VALID,0,VALID,75.7777,VALID,188.857,VALID,28.6166,VALID,200,VALID,0.116797,
2008-08-18, 07:49:04,VALID,1007.66,VALID,0,VALID,74.9538,VALID,409.593,VALID,28.5364,VALID,320,VALID,0.261719,
2008-08-18, 07:50:04,VALID,1007.68,VALID,0,VALID,74.1909,VALID,423.973,VALID,28.5776,VALID,284,VALID,0.583203,
2008-08-18, 07:51:04,VALID,1007.7,VALID,0,VALID,74.2748,VALID,428.298,VALID,28.6144,VALID,284,VALID,0.566797,
2008-08-18, 07:52:04,VALID,1007.67,VALID,0,VALID,72.4973,VALID,437.248,VALID,28.5754,VALID,292,VALID,0.653906,
2008-08-18, 07:53:04,VALID,1007.7,VALID,0,VALID,73.283,VALID,446.298,VALID,28.5364,VALID,310,VALID,0.540234,
2008-08-18, 07:54:04,VALID,1007.7,VALID,0,VALID,74.3358,VALID,436.845,VALID,28.5559,VALID,350,VALID,0.946484,
2008-08-18, 07:55:04,VALID,1007.7,VALID,0,VALID,74.023,VALID,457.763,VALID,28.5971,VALID,359,VALID,0.96875,
2008-08-18, 07:56:04,VALID,1007.68,VALID,0,VALID,74.0917,VALID,461.785,VALID,28.6339,VALID,358,VALID,0.830469,
2008-08-18, 07:57:04,VALID,1007.71,VALID,0,VALID,74.6028,VALID,459.874,VALID,28.8115,VALID,276,VALID,0.6625,
2008-08-18, 07:58:04,VALID,1007.68,VALID,0,VALID,73.0923,VALID,468.121,VALID,28.9675,VALID,277,VALID,0.487109,
2008-08-18, 07:59:04,VALID,1007.67,VALID,0,VALID,72.3752,VALID,470.635,VALID,29.0845,VALID,290,VALID,0.779297,
2008-08-18, 08:00:04,VALID,1007.65,VALID,0,VALID,70.3383,VALID,474.154,VALID,29.1213,VALID,278,VALID,0.302344,
2008-08-18, 08:01:04,VALID,1007.63,VALID,0,VALID,70.2696,VALID,477.674,VALID,29.2015,VALID,187,VALID,0.390625,
2008-08-18, 08:02:04,VALID,1007.62,VALID,0,VALID,71.7649,VALID,480.691,VALID,29.299,VALID,230,VALID,0.856641,
2008-08-18, 08:03:04,VALID,1007.6,VALID,0,VALID,72.9474,VALID,480.993,VALID,29.2795,VALID,215,VALID,0.534766,
2008-08-18, 08:04:04,VALID,1007.59,VALID,0,VALID,72.3981,VALID,479.886,VALID,29.3207,VALID,206,VALID,0.564062,
2008-08-18, 08:05:04,VALID,1007.58,VALID,0,VALID,68.5989,VALID,481.596,VALID,29.3575,VALID,284,VALID,0.882422,
2008-08-18, 08:06:04,VALID,1007.59,VALID,0,VALID,68.721,VALID,484.915,VALID,29.338,VALID,209,VALID,0.687891,
2008-08-18, 08:07:04,VALID,1007.57,VALID,0,VALID,71.3224,VALID,489.943,VALID,29.26,VALID,246,VALID,1.00508,
2008-08-18, 08:08:04,VALID,1007.59,VALID,0,VALID,70.2162,VALID,485.82,VALID,29.2383,VALID,284,VALID,0.703125,
2008-08-18, 08:09:04,VALID,1007.56,VALID,0,VALID,73.2449,VALID,436.544,VALID,29.377,VALID,254,VALID,0.373047,
2008-08-18, 08:10:04,VALID,1007.57,VALID,0,VALID,70.9867,VALID,274.839,VALID,29.4528,VALID,219,VALID,0.426953,
2008-08-18, 08:11:04,VALID,1007.55,VALID,0,VALID,69.5296,VALID,455.751,VALID,29.4333,VALID,241,VALID,0.591406,
2008-08-18, 08:12:04,VALID,1007.54,VALID,0,VALID,68.5607,VALID,358.406,VALID,29.494,VALID,236,VALID,0.471484,
2008-08-18, 08:13:04,VALID,1007.59,VALID,0,VALID,68.5913,VALID,307.22,VALID,29.2968,VALID,155,VALID,0.351563,
2008-08-18, 08:14:04,VALID,1007.61,VALID,0,VALID,70.5443,VALID,168.342,VALID,29.221,VALID,310,VALID,0.960547,
2008-08-18, 08:15:04,VALID,1007.64,VALID,0,VALID,70.2772,VALID,501.709,VALID,29.2015,VALID,336,VALID,0.651172,
2008-08-18, 08:16:04,VALID,1007.64,VALID,0,VALID,70.6587,VALID,568.382,VALID,29.221,VALID,357,VALID,0.788672,
2008-08-18, 08:17:04,VALID,1007.66,VALID,0,VALID,69.8577,VALID,540.425,VALID,29.299,VALID,319,VALID,0.885547,
2008-08-18, 08:18:04,VALID,1007.67,VALID,0,VALID,70.2772,VALID,539.118,VALID,29.4745,VALID,360,VALID,0.55625,
2008-08-18, 08:19:04,VALID,1007.68,VALID,0,VALID,67.3249,VALID,536.805,VALID,29.6695,VALID,289,VALID,1.07305,
2008-08-18, 08:20:04,VALID,1007.7,VALID,0,VALID,67.6071,VALID,539.721,VALID,29.7085,VALID,285,VALID,1.06172,
2008-08-18, 08:21:04,VALID,1007.69,VALID,0,VALID,68.2174,VALID,542.537,VALID,29.6305,VALID,279,VALID,0.653516,
2008-08-18, 08:22:04,VALID,1007.68,VALID,0,VALID,68.3777,VALID,545.051,VALID,29.5915,VALID,169,VALID,0.324219,
2008-08-18, 08:23:04,VALID,1007.69,VALID,0,VALID,68.5531,VALID,539.721,VALID,29.5915,VALID,200,VALID,0.390234,
2008-08-18, 08:24:04,VALID,1007.73,VALID,0,VALID,67.569,VALID,566.069,VALID,29.65,VALID,162,VALID,0.348047,
2008-08-18, 08:25:04,VALID,1007.71,VALID,0,VALID,67.7216,VALID,574.315,VALID,29.7258,VALID,219,VALID,1.03516,
2008-08-18, 08:26:04,VALID,1007.69,VALID,0,VALID,69.522,VALID,591.008,VALID,29.5915,VALID,170,VALID,1.39688,
2008-08-18, 08:27:04,VALID,1007.7,VALID,0,VALID,68.4845,VALID,618.764,VALID,29.3358,VALID,213,VALID,0.851172,
2008-08-18, 08:28:04,VALID,1007.7,VALID,0,VALID,69.3465,VALID,666.028,VALID,29.2968,VALID,127,VALID,0.396875,
2008-08-18, 08:29:04,VALID,1007.7,VALID,0,VALID,69.9568,VALID,488.334,VALID,29.3358,VALID,159,VALID,0.594531,
2008-08-18, 08:30:04,VALID,1007.75,VALID,0,VALID,70.0331,VALID,227.675,VALID,29.3943,VALID,195,VALID,1.1957,
2008-08-18, 08:31:04,VALID,1007.75,VALID,0,VALID,69.6822,VALID,212.49,VALID,29.1603,VALID,193,VALID,1.2125,
2008-08-18, 08:32:04,VALID,1007.76,VALID,0,VALID,69.5601,VALID,224.758,VALID,28.9263,VALID,189,VALID,0.824609,
2008-08-18, 08:33:04,VALID,1007.76,VALID,0,VALID,72.4362,VALID,242.759,VALID,28.792,VALID,166,VALID,0.598437,
2008-08-18, 08:34:04,VALID,1007.77,VALID,0,VALID,71.4979,VALID,288.817,VALID,28.6339,VALID,205,VALID,0.904297,
2008-08-18, 08:35:04,VALID,1007.75,VALID,0,VALID,71.5131,VALID,334.07,VALID,28.5776,VALID,161,VALID,1.33945,
2008-08-18, 08:36:04,VALID,1007.74,VALID,0,VALID,73.8247,VALID,346.238,VALID,28.4584,VALID,163,VALID,1.60547,
2008-08-18, 08:37:04,VALID,1007.75,VALID,0,VALID,72.1387,VALID,763.172,VALID,28.4606,VALID,189,VALID,1.63008,
2008-08-18, 08:38:04,VALID,1007.76,VALID,0,VALID,72.2608,VALID,510.458,VALID,28.4194,VALID,185,VALID,1.7625,
2008-08-18, 08:39:04,VALID,1007.78,VALID,0,VALID,71.2766,VALID,449.818,VALID,28.4584,VALID,167,VALID,1.69922,
2008-08-18, 08:40:04,VALID,1007.82,VALID,0,VALID,73.222,VALID,222.948,VALID,28.4194,VALID,176,VALID,1.16797,
2008-08-18, 08:41:04,VALID,1007.78,VALID,0,VALID,72.421,VALID,204.042,VALID,28.3826,VALID,175,VALID,0.698047,
2008-08-18, 08:42:04,VALID,1007.78,VALID,0,VALID,72.3523,VALID,188.857,VALID,28.3436,VALID,180,VALID,0.764453,
2008-08-18, 08:43:04,VALID,1007.75,VALID,0,VALID,72.6956,VALID,173.873,VALID,28.2635,VALID,198,VALID,1.01094,
2008-08-18, 08:44:04,VALID,1007.72,VALID,0,VALID,72.7414,VALID,167.035,VALID,28.2267,VALID,164,VALID,0.880078,
2008-08-18, 08:45:04,VALID,1007.71,VALID,0,VALID,72.1768,VALID,159.996,VALID,28.1682,VALID,206,VALID,1.15742,
2008-08-18, 08:46:04,VALID,1007.68,VALID,0,VALID,72.894,VALID,162.309,VALID,28.1097,VALID,203,VALID,0.455469,
2008-08-18, 08:47:04,VALID,1007.71,VALID,0,VALID,72.4515,VALID,176.387,VALID,28.0686,VALID,182,VALID,0.957031,
2008-08-18, 08:48:04,VALID,1007.67,VALID,0,VALID,73.222,VALID,180.51,VALID,28.0122,VALID,185,VALID,0.429297,
2008-08-18, 08:49:04,VALID,1007.7,VALID,0,VALID,73.0465,VALID,190.165,VALID,28.0296,VALID,185,VALID,0.205859,
2008-08-18, 08:50:04,VALID,1007.69,VALID,0,VALID,74.2824,VALID,250.703,VALID,28.0881,VALID,186,VALID,0.153125,
2008-08-18, 08:51:04,VALID,1007.66,VALID,0,VALID,74.4426,VALID,318.181,VALID,28.2072,VALID,192,VALID,0.539453,
2008-08-18, 08:52:04,VALID,1007.66,VALID,0,VALID,72.6193,VALID,428.197,VALID,28.283,VALID,216,VALID,0.315625,
2008-08-18, 08:53:04,VALID,1007.62,VALID,0,VALID,72.0166,VALID,650.542,VALID,28.5169,VALID,183,VALID,0.610547,
2008-08-18, 08:54:04,VALID,1007.62,VALID,0,VALID,74.6715,VALID,639.279,VALID,28.7509,VALID,250,VALID,0.280859,
2008-08-18, 08:55:04,VALID,1007.6,VALID,0,VALID,70.8265,VALID,646.821,VALID,29.0823,VALID,282,VALID,0.795313,
2008-08-18, 08:56:04,VALID,1007.59,VALID,0,VALID,71.0706,VALID,650.743,VALID,29.3358,VALID,143,VALID,0.620703,
2008-08-18, 08:57:04,VALID,1007.62,VALID,0,VALID,69.7432,VALID,664.721,VALID,29.5503,VALID,69,VALID,0.351563,
2008-08-18, 08:58:04,VALID,1007.6,VALID,0,VALID,70.1476,VALID,682.118,VALID,29.7453,VALID,213,VALID,0.721094,
2008-08-18, 08:59:04,VALID,1007.62,VALID,0,VALID,68.5913,VALID,698.611,VALID,29.86,VALID,275,VALID,0.485938,
2008-08-18, 09:00:04,VALID,1007.63,VALID,0,VALID,66.5238,VALID,720.534,VALID,30.0573,VALID,265,VALID,0.866797,
2008-08-18, 09:01:04,VALID,1007.62,VALID,0,VALID,66.3865,VALID,729.986,VALID,30.1353,VALID,256,VALID,0.828906,
2008-08-18, 09:02:04,VALID,1007.6,VALID,0,VALID,66.8366,VALID,733.707,VALID,29.9816,VALID,152,VALID,0.253906,
2008-08-18, 09:03:04,VALID,1007.58,VALID,0,VALID,67.4546,VALID,737.83,VALID,30.1353,VALID,313,VALID,0.601563,
2008-08-18, 09:04:04,VALID,1007.55,VALID,0,VALID,67.9123,VALID,742.155,VALID,30.2913,VALID,208,VALID,0.506641,
2008-08-18, 09:05:04,VALID,1007.52,VALID,0,VALID,64.3496,VALID,194.589,VALID,30.3717,VALID,210,VALID,1.84297,
2008-08-18, 09:06:04,VALID,1007.51,VALID,0,VALID,66.2873,VALID,747.585,VALID,29.9426,VALID,253,VALID,0.531641,
2008-08-18, 09:07:04,VALID,1007.49,VALID,0,VALID,69.1405,VALID,742.356,VALID,29.9013,VALID,171,VALID,1.67461,
2008-08-18, 09:08:04,VALID,1007.46,VALID,0,VALID,68.2785,VALID,773.027,VALID,29.7648,VALID,176,VALID,1.07266,
2008-08-18, 09:09:04,VALID,1007.46,VALID,0,VALID,67.4164,VALID,554.303,VALID,29.689,VALID,208,VALID,1.16562,
2008-08-18, 09:10:04,VALID,1007.47,VALID,0,VALID,68.3395,VALID,286.906,VALID,29.5893,VALID,210,VALID,1.42969,
2008-08-18, 09:11:04,VALID,1007.5,VALID,0,VALID,68.1564,VALID,250.201,VALID,29.4528,VALID,197,VALID,1.63398,
2008-08-18, 09:12:04,VALID,1007.49,VALID,0,VALID,70.1247,VALID,775.541,VALID,29.221,VALID,183,VALID,1.1293,
2008-08-18, 09:13:04,VALID,1007.54,VALID,0,VALID,68.5913,VALID,183.226,VALID,29.0845,VALID,191,VALID,1.52734,
2008-08-18, 09:14:04,VALID,1007.51,VALID,0,VALID,70.5671,VALID,369.669,VALID,28.948,VALID,221,VALID,1.39922,
2008-08-18, 09:15:04,VALID,1007.46,VALID,0,VALID,69.6593,VALID,193.684,VALID,28.909,VALID,210,VALID,0.873047,
2008-08-18, 09:16:04,VALID,1007.47,VALID,0,VALID,70.7045,VALID,153.057,VALID,28.7725,VALID,184,VALID,0.674609,
2008-08-18, 09:17:04,VALID,1007.44,VALID,0,VALID,70.6053,VALID,134.252,VALID,28.714,VALID,195,VALID,1.46133,
2008-08-18, 09:18:04,VALID,1007.45,VALID,0,VALID,70.3917,VALID,166.331,VALID,28.6361,VALID,200,VALID,1.42695,
2008-08-18, 09:19:04,VALID,1007.4,VALID,0,VALID,70.4756,VALID,186.243,VALID,28.5386,VALID,152,VALID,1.42422,
2008-08-18, 09:20:04,VALID,1007.4,VALID,0,VALID,71.8259,VALID,166.934,VALID,28.4216,VALID,190,VALID,2.0418,
2008-08-18, 09:21:04,VALID,1007.36,VALID,0,VALID,71.3682,VALID,136.967,VALID,28.3241,VALID,208,VALID,0.990234,
2008-08-18, 09:22:04,VALID,1007.35,VALID,0,VALID,72.3218,VALID,134.553,VALID,28.2462,VALID,169,VALID,1.3207,
2008-08-18, 09:23:04,VALID,1007.32,VALID,0,VALID,72.7948,VALID,152.655,VALID,28.166,VALID,168,VALID,1.70195,
2008-08-18, 09:24:04,VALID,1007.31,VALID,0,VALID,72.7795,VALID,149.638,VALID,28.1292,VALID,188,VALID,0.846094,
2008-08-18, 09:25:04,VALID,1007.32,VALID,0,VALID,73.2907,VALID,169.247,VALID,28.0902,VALID,173,VALID,0.686328,
2008-08-18, 09:26:04,VALID,1007.31,VALID,0,VALID,74.0917,VALID,195.595,VALID,28.1076,VALID,183,VALID,1.16211,
2008-08-18, 09:27:04,VALID,1007.31,VALID,0,VALID,73.8323,VALID,280.068,VALID,28.1682,VALID,160,VALID,1.6168,
2008-08-18, 09:28:04,VALID,1007.3,VALID,0,VALID,74.023,VALID,733.104,VALID,28.1855,VALID,163,VALID,0.808594,
2008-08-18, 09:29:04,VALID,1007.26,VALID,0,VALID,74.9003,VALID,756.837,VALID,28.361,VALID,183,VALID,0.501953,
2008-08-18, 09:30:04,VALID,1007.28,VALID,0,VALID,73.7789,VALID,843.019,VALID,28.6339,VALID,140,VALID,1.28164,
2008-08-18, 09:31:04,VALID,1007.27,VALID,0,VALID,72.9474,VALID,819.186,VALID,28.8873,VALID,173,VALID,1.44141,
2008-08-18, 09:32:04,VALID,1007.29,VALID,0,VALID,70.0179,VALID,806.615,VALID,28.9848,VALID,143,VALID,0.988281,
2008-08-18, 09:33:04,VALID,1007.23,VALID,0,VALID,69.789,VALID,801.487,VALID,29.1018,VALID,171,VALID,1.65313,
2008-08-18, 09:34:04,VALID,1007.25,VALID,0,VALID,70.0407,VALID,795.956,VALID,29.1408,VALID,169,VALID,1.34727,
2008-08-18, 09:35:04,VALID,1007.22,VALID,0,VALID,69.9187,VALID,797.464,VALID,29.2578,VALID,176,VALID,0.988672,
2008-08-18, 09:36:04,VALID,1007.26,VALID,0,VALID,68.3319,VALID,808.426,VALID,29.3748,VALID,177,VALID,1.52734,
2008-08-18, 09:37:04,VALID,1007.19,VALID,0,VALID,70.2544,VALID,831.253,VALID,29.3553,VALID,194,VALID,2.6418,
2008-08-18, 09:38:04,VALID,1007.21,VALID,0,VALID,69.6059,VALID,836.985,VALID,29.5113,VALID,215,VALID,0.975391,
2008-08-18, 09:39:04,VALID,1007.2,VALID,0,VALID,71.8488,VALID,846.841,VALID,29.7063,VALID,178,VALID,0.656641,
2008-08-18, 09:40:04,VALID,1007.2,VALID,0,VALID,67.1341,VALID,784.693,VALID,29.6455,VALID,167,VALID,2.50391,
2008-08-18, 09:41:04,VALID,1007.21,VALID,0,VALID,70.2238,VALID,743.764,VALID,29.5893,VALID,173,VALID,1.31758,
2008-08-18, 09:42:04,VALID,1007.19,VALID,0,VALID,68.3319,VALID,815.565,VALID,29.4138,VALID,176,VALID,1.77695,
2008-08-18, 09:43:04,VALID,1007.21,VALID,0,VALID,71.2843,VALID,298.873,VALID,29.2773,VALID,184,VALID,1.96719,
2008-08-18, 09:44:04,VALID,1007.25,VALID,0,VALID,70.6816,VALID,681.515,VALID,29.2773,VALID,230,VALID,1.17305,
2008-08-18, 09:45:04,VALID,1007.24,VALID,0,VALID,69.6135,VALID,468.422,VALID,29.1603,VALID,256,VALID,1.22695,
2008-08-18, 09:46:04,VALID,1007.21,VALID,0,VALID,71.5208,VALID,670.654,VALID,29.0021,VALID,188,VALID,1.39102,
2008-08-18, 09:47:04,VALID,1007.23,VALID,0,VALID,70.6434,VALID,646.117,VALID,28.9458,VALID,222,VALID,1.91016,
2008-08-18, 09:48:04,VALID,1007.24,VALID,0,VALID,73.3593,VALID,427.895,VALID,28.8873,VALID,213,VALID,1.21211,
2008-08-18, 09:49:04,VALID,1007.24,VALID,0,VALID,74.0612,VALID,263.575,VALID,28.9458,VALID,164,VALID,0.887109,
2008-08-18, 09:50:04,VALID,1007.22,VALID,0,VALID,73.2678,VALID,317.98,VALID,28.9458,VALID,190,VALID,1.07305,
2008-08-18, 09:51:04,VALID,1007.22,VALID,0,VALID,71.2385,VALID,687.649,VALID,28.8873,VALID,167,VALID,2.51289,
2008-08-18, 09:52:04,VALID,1007.17,VALID,0,VALID,72.421,VALID,847.947,VALID,28.8678,VALID,159,VALID,1.35625,
2008-08-18, 09:53:04,VALID,1007.18,VALID,0,VALID,74.5113,VALID,841.108,VALID,29.0455,VALID,182,VALID,0.911328,
2008-08-18, 09:54:04,VALID,1007.16,VALID,0,VALID,74.8393,VALID,848.047,VALID,29.0433,VALID,161,VALID,2.76016,
2008-08-18, 09:55:04,VALID,1007.16,VALID,0,VALID,74.3206,VALID,879.624,VALID,28.9458,VALID,205,VALID,2.21719,
2008-08-18, 09:56:04,VALID,1007.16,VALID,0,VALID,77.1204,VALID,944.588,VALID,28.8505,VALID,137,VALID,1.60469,
2008-08-18, 09:57:04,VALID,1007.14,VALID,0,VALID,74.6791,VALID,344.83,VALID,28.9068,VALID,168,VALID,1.32891,
2008-08-18, 09:58:04,VALID,1007.14,VALID,0,VALID,75.9226,VALID,272.023,VALID,28.8505,VALID,172,VALID,2.30859,
2008-08-18, 09:59:04,VALID,1007.15,VALID,0,VALID,76.1362,VALID,271.822,VALID,28.8115,VALID,196,VALID,1.64336,
2008-08-18, 10:00:04,VALID,1007.18,VALID,0,VALID,75.8234,VALID,266.995,VALID,28.6144,VALID,186,VALID,2.43828,
2008-08-18, 10:01:04,VALID,1007.15,VALID,0,VALID,76.1744,VALID,267.095,VALID,28.4194,VALID,223,VALID,1.79766,
2008-08-18, 10:02:04,VALID,1007.18,VALID,0,VALID,77.9672,VALID,258.145,VALID,28.322,VALID,192,VALID,1.40625,
2008-08-18, 10:03:04,VALID,1007.16,VALID,0,VALID,77.0822,VALID,245.977,VALID,28.2851,VALID,201,VALID,2.61992,
2008-08-18, 10:04:04,VALID,1007.14,VALID,0,VALID,78.7758,VALID,227.473,VALID,28.1292,VALID,216,VALID,1.35352,
2008-08-18, 10:05:04,VALID,1007.1,VALID,0,VALID,78.8292,VALID,222.646,VALID,28.1097,VALID,180,VALID,2.72383,
2008-08-18, 10:06:04,VALID,1007.1,VALID,0,VALID,79.0123,VALID,273.23,VALID,28.0491,VALID,208,VALID,1.04297,
2008-08-18, 10:07:04,VALID,1007.07,VALID,0,VALID,78.4325,VALID,370.172,VALID,28.0491,VALID,166,VALID,2.30781,
2008-08-18, 10:08:04,VALID,1007.09,VALID,0,VALID,79.9507,VALID,575.823,VALID,28.0296,VALID,200,VALID,2.40156,
2008-08-18, 10:09:04,VALID,1007.08,VALID,0,VALID,79.3709,VALID,876.607,VALID,28.0686,VALID,159,VALID,1.48398,
2008-08-18, 10:10:04,VALID,1007.07,VALID,0,VALID,79.2564,VALID,908.083,VALID,28.1855,VALID,163,VALID,3.23711,
2008-08-18, 10:11:04,VALID,1007.13,VALID,0,VALID,77.1966,VALID,814.459,VALID,28.361,VALID,213,VALID,2.25117,
2008-08-18, 10:12:04,VALID,1007.12,VALID,0,VALID,79.7523,VALID,719.427,VALID,28.5191,VALID,226,VALID,0.9,
2008-08-18, 10:13:04,VALID,1007.09,VALID,0,VALID,76.7465,VALID,291.834,VALID,28.6924,VALID,175,VALID,1.8,
2008-08-18, 10:14:04,VALID,1007.09,VALID,0,VALID,76.4338,VALID,455.852,VALID,28.6534,VALID,185,VALID,2.43984,
2008-08-18, 10:15:04,VALID,1007.12,VALID,0,VALID,77.8298,VALID,927.794,VALID,28.6144,VALID,207,VALID,1.33633,
2008-08-18, 10:16:04,VALID,1007.06,VALID,0,VALID,75.9608,VALID,910.698,VALID,28.7314,VALID,223,VALID,1.56328,
2008-08-18, 10:17:04,VALID,1007.06,VALID,0,VALID,76.8076,VALID,807.42,VALID,28.8093,VALID,201,VALID,2.47344,
2008-08-18, 10:18:04,VALID,1007.05,VALID,0,VALID,74.8775,VALID,916.33,VALID,28.9675,VALID,185,VALID,1.26328,